Pueblo, CO

8:31 PM MDT on April 25, 2017 (GMT -0600)
Pueblo Memorial

Weather History for KPUB - April, 2014

Change the Weather History Date:

Friday, April 4, 2014

  Actual Average Record
Temperature  
Mean Temperature 41 °F 47 °F  
Max Temperature 53 °F 64 °F 81 °F (1959)
Min Temperature 29 °F 31 °F 4 °F (1945)
Degree Days  
Heating Degree Days 24 18  
Month to date heating degree days 78 73  
Since 1 July heating degree days 4955 5078  
Cooling Degree Days 0 0  
Month to date cooling degree days 0 0  
Year to date cooling degree days 0 0  
Moisture  
Dew Point 31 °F    
Average Humidity 71    
Maximum Humidity 100    
Minimum Humidity 41    
Precipitation  
Precipitation 0.00 in 0.03 in 1.14 in (2017)
Month to date precipitation 0.59 0.13  
Year to date precipitation 2.08 1.71  
Snow  
Snow 0.00 in 0.20 in 3.70 in (1971)
Month to date snowfall 3.1 0.7  
Since 1 July snowfall 24.1 28.2  
Snow Depth 0.00 in    
Sea Level Pressure  
Sea Level Pressure 30.04 in    
Wind  
Wind Speed 5 mph (South)    
Max Wind Speed 16 mph    
Max Gust Speed 21 mph    
Visibility 9 miles    
Events      
T = Trace of Precipitation, MM = Missing Value Source: NWS Daily Summary

Daily Weather History Graph

Daily Weather History Graph

Search for Another Location

Airport or City:

Trip Planner

Search our weather history database for the weather conditions in past years. The results will help you decide how hot, cold, wet, or windy it might be!

Date:

Astronomy

Apr. 04, 2014 Rise Set
Actual Time 6:38 AM MDT 7:24 PM MDT
Civil Twilight 6:11 AM MDT 7:50 PM MDT
Nautical Twilight 5:40 AM MDT 8:22 PM MDT
Astronomical Twilight 5:07 AM MDT 8:55 PM MDT
Moon 10:00 AM MDT (4/4) No Moon Set
Length of Visible Light 13h 39m
Length of Day
12h 45m
Waxing Crescent, 26% of the Moon is Illuminated
Apr 4
Waxing Crescent
Apr 7
First Quarter
Apr 15
Full
Apr 22
Last Quarter
Apr 29
New

Hourly Weather History & Observations

Time (MDT) Temp. Windchill Dew Point Humidity Pressure Visibility Wind Dir Wind Speed Gust Speed Precip Events Conditions
12:53 AM 34.0 °F - 30.0 °F 85% 30.16 in 10.0 mi Calm Calm - N/A   Overcast
1:53 AM 34.0 °F 31.0 °F 30.0 °F 85% 30.14 in 10.0 mi West 3.5 mph - N/A   Mostly Cloudy
2:53 AM 32.0 °F - 30.0 °F 92% 30.14 in 9.0 mi Calm Calm - N/A   Partly Cloudy
3:53 AM 30.9 °F 27.5 °F 28.9 °F 92% 30.12 in 8.0 mi SSW 3.5 mph - N/A   Clear
4:53 AM 30.0 °F - 28.0 °F 92% 30.13 in 7.0 mi Calm Calm - N/A   Clear
5:53 AM 28.9 °F 21.9 °F 28.0 °F 96% 30.14 in 8.0 mi West 6.9 mph - N/A   Clear
6:53 AM 28.9 °F 25.2 °F 28.0 °F 96% 30.15 in 5.0 mi WNW 3.5 mph - N/A   Clear
7:53 AM 30.9 °F 26.2 °F 28.9 °F 92% 30.16 in 7.0 mi SW 4.6 mph - N/A   Clear
8:53 AM 35.1 °F - 30.0 °F 82% 30.15 in 9.0 mi Calm Calm - N/A   Clear
9:53 AM 39.0 °F - 28.9 °F 67% 30.14 in 10.0 mi Calm Calm - N/A   Clear
10:53 AM 41.0 °F - 30.0 °F 65% 30.13 in 10.0 mi Calm Calm - N/A   Clear
11:53 AM 44.1 °F 40.8 °F 30.0 °F 58% 30.10 in 10.0 mi SSW 5.8 mph - N/A   Clear
12:53 PM 46.9 °F - 34.0 °F 61% 30.06 in 10.0 mi South 4.6 mph - N/A   Clear
1:53 PM 50.0 °F - 30.9 °F 48% 30.01 in 10.0 mi South 4.6 mph - N/A   Clear
2:53 PM 50.0 °F - 30.0 °F 46% 29.99 in 10.0 mi SSE 10.4 mph - N/A   Clear
3:53 PM 51.1 °F - 30.9 °F 46% 29.96 in 10.0 mi SE 12.7 mph - N/A   Clear
4:53 PM 53.1 °F - 32.0 °F 45% 29.92 in 10.0 mi ESE 12.7 mph - N/A   Clear
5:53 PM 53.1 °F - 30.9 °F 43% 29.91 in 10.0 mi SE 11.5 mph - N/A   Clear
6:53 PM 52.0 °F - 30.0 °F 43% 29.92 in 10.0 mi ESE 6.9 mph - N/A   Overcast
7:53 PM 48.0 °F - 36.0 °F 63% 29.92 in 10.0 mi ENE 4.6 mph - N/A   Clear
8:53 PM 44.1 °F 41.5 °F 35.1 °F 71% 29.95 in 10.0 mi NE 4.6 mph - N/A   Clear
9:53 PM 41.0 °F 37.1 °F 34.0 °F 76% 29.95 in 10.0 mi North 5.8 mph - N/A   Clear
10:53 PM 39.0 °F 35.7 °F 33.1 °F 79% 29.95 in 10.0 mi WNW 4.6 mph - N/A   Clear
11:53 PM 39.0 °F 33.4 °F 32.0 °F 76% 29.92 in 10.0 mi North 8.1 mph - N/A   Clear